Find Starlink 34964

NORAD ID: 65239 Int'l Des: 2025-179 Owner: SPXS Country: US Constellation: starlink operational
LEOCIRCULARRETROGRADESSO

Live-Position

3D-Globus wird geladen...

Über Starlink 34964

Beschreibung wird geladen...

Nächste Überflüge

Passes for default location (London). Set your location on the main map for personalized predictions.

Höhenverlauf

Loading altitude history...

Zweizeiliger Elementsatz

1 65239U 25179E 26107.10337258 .00002919 00000-0 20641-3 0 9991
2 65239 97.6030 150.7555 0001745 103.7363 256.4058 15.05653651 37591
Epoch: 17. Apr. 2026 • Age: 12 hours

Aktueller Status

Höhe 569.7 km
Geschwindigkeit 7.57 km/s
Subsatellitenpunkt -49.99°S, 103.57°W
Startdatum 18. Aug. 2025
Alter 0.6 years
Typ internet

Technische Details

Klassifizierung Payload
Masse 575.00 kg
Trockenmasse 530.00 kg
Gesamtmasse 575.00 kg
Länge 0.30 m
Durchmesser 4.10 m
Spannweite 29.00 m
Form Box + pan
Hersteller SPXS
Bus-Typ Starlink V2MO
Phasenstatus In Orbit
Besitzer/Staat SPXS/US

Most Searched